Hourly Data Report for October 29, 2015

All times are specified in Local Standard Time (LST). Add 1 hour to adjust for Daylight Saving Time where and when it is observed.

POND INLET A
NUNAVUT

72°41'22.000" N
77°58'08.000" W
61.60 m
2403206
71095
YIO

Download Data

Hourly Data (October 2015)
Hourly Data Report for October 29, 2015
Temp Definition
°C
Dew Point Temp Definition
°C
Rel Hum Definition
%
Wind Dir Definition
10's deg

Wind Spd Definition
km/h
Visibility Definition
km
Stn Press Definition
kPa
Hmdx Definition


Wind Chill Definition


Weather Definition


TIME
00:00 Legend Double Dagger -8.9 -12.1 78 24 17 16.1 100.13   -16 LegendNANA
01:00 Legend Double Dagger -8.9 -11.6 81 26 17 16.1 100.14   -16 LegendNANA
02:00 Legend Double Dagger -9.0 -11.9 80 28 9 16.1 100.12   -14 LegendNANA
03:00 Legend Double Dagger -9.1 -11.7 82 28 17 16.1 100.12   -16 LegendNANA
04:00 Legend Double Dagger -9.4 -11.6 84 27 18 16.1 100.12   -17 Snow
05:00 Legend Double Dagger -9.7 -11.6 86 28 21 16.1 100.12   -18 Snow
06:00 Legend Double Dagger -10.0 -11.5 89 26 18 6.4 100.13   -17 Snow
07:00 Legend Double Dagger -10.2 -11.4 91 29 13 16.1 100.12   -16 Snow
08:00 Legend Double Dagger -10.6 -12.1 89 28 17 16.1 100.10   -18 Snow
09:00 Legend Double Dagger -10.6 -12.1 89 28 17 16.1 100.09   -18 Snow
10:00 Legend Double Dagger -10.7 -12.2 89 27 22 4.0 100.10   -19 Snow
11:00 Legend Double Dagger -10.6 -12.3 88 27 21 9.7 100.11   -19 Snow
12:00 Legend Double Dagger -11.4 -12.7 90 29 17 2.8 100.12   -19 Snow
13:00 Legend Double Dagger -11.4 -13.0 88 28 18 12.9 100.14   -19 Snow
14:00 Legend Double Dagger -11.9 -13.5 88 28 15 16.1 100.13   -19 Snow
15:00 Legend Double Dagger -12.4 -14.1 87 29 13 16.1 100.12   -19 Snow
16:00 Legend Double Dagger -12.8 -14.5 87 26 9 12.9 100.08   -18 Snow
17:00 Legend Double Dagger -12.6 -14.3 87 23 9 16.1 100.06   -18 Snow
18:00 Legend Double Dagger -13.3 -14.8 89 20 9 14.5 100.00   -19 Snow
19:00 Legend Double Dagger -14.1 -15.6 88 16 15 16.1 99.95   -22 Snow
20:00 Legend Double Dagger -14.1 -15.7 88 16 15 11.3 99.92   -22 Snow
21:00 Legend Double Dagger -14.4 -16.1 87 16 15 16.1 99.90   -22 LegendNANA
22:00 Legend Double Dagger -13.9 -15.8 86 19 11 16.1 99.87   -20 Snow
23:00 Legend Double Dagger -14.4 -16.3 86 16 17 16.1 99.81   -23 LegendNANA

Notes on Data Quality.

Legend

  • E = Estimated
  • M = Missing
  • NA = Not Available
  • ‡ = Partner data that is not subject to review by the National Climate Archives
Date modified: